STARLINK-4608, 53621

Orbit data source: Space-Track

STARLINK-4608, 53621 is a payload satellite owned by SpaceX/Seattle (US) in LEO that was launched on Sun, 28 Aug 2022 UTC via an FALCON 9 launch vehicle from the Air Force Eastern Test Range (AFETR). Payload-class satellites include a variety of spacecraft equipped with specific instruments for various scientific and technological missions. These include communications satellites like Starlink; space stations such as the ISS; scientific satellites like the Hubble; Earth observation satellites from companies like Planet Labs, Umbra, and HawkEye 360; GPS; miniature CubeSats for education and research; and military/defense satellites.

Loading next visibility...
Identifier
53621, 2022-104AK
Orbit
LEO
Country
Flag of USUS
Related business
Manufacturer
SpaceX/Seattle
Mission
Operational Commercial Communications
Bus & Motor
STARLINK, Unknown motor
Mass
300 kg wet, ~290 kg dry
Launch date (UTC)
2022-08-28 (3 years ago)
Launch vehicle
FALCON 9
Launch site
Air Force Eastern Test Range (AFETR)
Object type
Payload
Rocket body
Debris
Shape & HBR
Box + 1 Pan, 10.1 m
Radar Cross Section
13.562 m², Large (>1 m²)

Expand to show TLE details & history
Last TLE update: 2 days ago

TLE from 2 days ago
0 STARLINK-4608
1 53621U 22104AK  26035.68895018  .00000474  00000-0  47880-4 0  9993
2 53621  53.2186  22.2204 0001456  91.4228 268.6931 15.08833830190653
Epoch: 2026-02-04T16:32Z
TLE epoch observation values (Epoch: 2026-02-04T16:32:05.295Z)
Latitude
-0.00002°
Longitude
-0.65361°
Altitude
540.683 km
Speed
7.593 km/s
True Right ascension
01h 28m 52s
True Declination
0° 00' 00"
Sunlit
Object was in daylight at epoch
Visualization orbit readout
Latitude
Unknown
Longitude
Unknown
Altitude
Unknown
Speed
Unknown
Apparent Right ascension
Unknown
Apparent Declination
Unknown
Sunlit
N/A
Visualization observer readout
Local Sidereal Time
10:38:20
Azimuth
Unknown
Elevation
Unknown
Doppler factor
Unknown
Orbital elements
Apogee altitude
541.014 km
Perigee altitude
539 km
Semi-major axis
6,918.144 km
Eccentricity
0.00015
Inclination
53.2186°
RAAN
22.2204°
Arg. of periapsis
91.4228°
True anomaly
268.67642°
Mean anomaly
268.6931°
Eccentric anomaly
268.68476°
Mean motion
3.77189 °/min
Orbital period
95.44 mins
BSTAR
0.00004788
Loading maneuver chart data...
Computing Atmospheric mass density...
Loading historical data...
Loading historical data...
Loading historical data...
Loading historical data...
Loading historical data...
Loading historical data...
Loading historical data...

Documentation

Showing up to 5 results
|